User: anonymous   Login
Location: Unspecified
(0.0000°N, 0.0000°E)
Time: 19:38:31
(UTC+00:00)
Language:

ATEX - Orbit

View from above orbital plane
View from above orbital plane
View from above satellite
View from above satellite

Ground track
Ground track

The orbit data is extracted from the following two-line orbital elements,

1 25615U 98055C   19002.68943569 0.00000060  00000-0  17202-4 0    03
2 25615  84.9881 180.2531 0009000 100.6651 259.3348 14.45041241    07
Epoch (UTC): 02 January 2019 16:32:47
Eccentricity: 0.0009000
inclination: 84.9881°
perigee height: 735 km
apogee height: 748 km
right ascension of ascending node: 180.2531°
argument of perigee: 100.6651°
revolutions per day: 14.45041241
mean anomaly at epoch: 259.3348°
orbit number at epoch: 0

The dashed part of the orbit path shows where the satellite is in the earth's shadow,  

DLR